2023/08/03 00:00:00, 0.1,26.5
2023/08/03 00:10:00, 0.1,26.7
2023/08/03 00:20:00, 0.1,26.6
2023/08/03 00:30:00, 0.1,26.3
2023/08/03 00:40:00, 0.1,26.6
2023/08/03 00:50:00, 0.1,26.5
2023/08/03 01:00:00, 0.1,26.5
2023/08/03 01:10:00, 5.7,26.3
2023/08/03 01:20:00,20.8,26.2
2023/08/03 01:30:00,22.4,26.3
2023/08/03 01:40:00,22.2,26.2
2023/08/03 01:50:00,21.8,26.2
2023/08/03 02:00:00,19.3,26.1
2023/08/03 02:10:00, 7.3,26.3
2023/08/03 02:20:00, 0.1,26.1
2023/08/03 02:30:00, 0.1,25.8
2023/08/03 02:40:00, 0.1,25.8
2023/08/03 02:50:00, 0.1,25.7
2023/08/03 03:00:00, 0.1,25.6
2023/08/03 03:10:00, 0.1,25.6
2023/08/03 03:20:00, 0.2,25.7
2023/08/03 03:30:00,14.8,25.5
2023/08/03 03:40:00,21.8,25.6
2023/08/03 03:50:00,22.2,25.6
2023/08/03 04:00:00,22.0,25.9
2023/08/03 04:10:00,21.7,25.8
2023/08/03 04:20:00,---,25.8
2023/08/03 04:30:00, 1.0,25.7
2023/08/03 04:40:00, 0.1,25.8
2023/08/03 04:50:00, 0.2,25.8
2023/08/03 05:00:00, 7.6,26.0
2023/08/03 05:10:00,20.1,26.0
2023/08/03 05:20:00,20.6,26.0
2023/08/03 05:30:00,20.2,26.1
2023/08/03 05:40:00,19.8,26.1
2023/08/03 05:50:00,19.3,25.9
2023/08/03 06:00:00,19.0,25.9
2023/08/03 06:10:00,18.9,25.8
2023/08/03 06:20:00,18.7,26.0
2023/08/03 06:30:00,17.8,26.1
2023/08/03 06:40:00,17.1,26.2
2023/08/03 06:50:00,17.1,26.8
2023/08/03 07:00:00,17.0,27.6
2023/08/03 07:10:00,16.7,27.9
2023/08/03 07:20:00,16.7,28.0
2023/08/03 07:30:00,17.1,28.2
2023/08/03 07:40:00,17.2,28.3
2023/08/03 07:50:00,17.2,29.7
2023/08/03 08:00:00,17.0,28.9
2023/08/03 08:10:00,17.4,29.2
2023/08/03 08:20:00,17.5,29.4
2023/08/03 08:30:00,17.6,29.7
2023/08/03 08:40:00,17.3,29.8
2023/08/03 08:50:00,18.2,30.3
2023/08/03 09:00:00,19.3,30.6
2023/08/03 09:10:00, 0.0,30.9
2023/08/03 09:20:00, 0.0,31.5
2023/08/03 09:30:00,---,32.1
2023/08/03 09:40:00, 0.2,32.4
2023/08/03 09:50:00, 0.2,32.7
2023/08/03 10:00:00, 0.1,32.6
2023/08/03 10:10:00, 0.1,32.6
2023/08/03 10:20:00, 0.1,32.6
2023/08/03 10:30:00, 0.1,32.9
2023/08/03 10:40:00, 0.1,34.4
2023/08/03 10:50:00, 0.1,34.3
2023/08/03 11:00:00, 0.2,33.6
2023/08/03 11:10:00, 0.8,33.9
2023/08/03 11:20:00, 0.2,34.4
2023/08/03 11:30:00, 0.1,34.6
2023/08/03 11:40:00, 0.1,35.2
2023/08/03 11:50:00,---,34.8
2023/08/03 12:00:00, 0.8,34.9
2023/08/03 12:10:00,13.1,35.9
2023/08/03 12:20:00,20.2,35.5
2023/08/03 12:30:00,19.8,35.6
2023/08/03 12:40:00,19.5,36.0
2023/08/03 12:50:00,19.4,36.3
2023/08/03 13:00:00,19.3,35.0
2023/08/03 13:10:00,18.7,34.9
2023/08/03 13:20:00,18.3,34.2
2023/08/03 13:30:00,18.7,33.8
2023/08/03 13:40:00,18.4,33.1
2023/08/03 13:50:00,18.4,34.4
2023/08/03 14:00:00,18.4,34.8
2023/08/03 14:10:00,18.4,35.5
2023/08/03 14:20:00,18.5,35.0
2023/08/03 14:30:00,18.6,34.4
2023/08/03 14:40:00,18.3,34.7
2023/08/03 14:50:00,18.1,34.1
2023/08/03 15:00:00,18.0,35.7
2023/08/03 15:10:00,11.0,35.6
2023/08/03 15:20:00, 0.1,35.6
2023/08/03 15:30:00, 0.2,35.0
2023/08/03 15:40:00, 0.1,35.0
2023/08/03 15:50:00, 0.1,34.5
2023/08/03 16:00:00, 0.1,34.2
2023/08/03 16:10:00, 0.2,34.8
2023/08/03 16:20:00, 0.1,34.7
2023/08/03 16:30:00, 0.0,35.9
2023/08/03 16:40:00, 0.1,34.6
2023/08/03 16:50:00, 0.2,33.5
2023/08/03 17:00:00, 0.2,33.4
2023/08/03 17:10:00, 0.2,33.1
2023/08/03 17:20:00, 0.1,32.3
2023/08/03 17:30:00, 0.1,32.1
2023/08/03 17:40:00, 0.2,31.4
2023/08/03 17:50:00, 0.2,31.1
2023/08/03 18:00:00, 0.2,31.1
2023/08/03 18:10:00, 0.2,30.8
2023/08/03 18:20:00, 0.0,30.4
2023/08/03 18:30:00, 0.0,30.0
2023/08/03 18:40:00, 0.0,29.7
2023/08/03 18:50:00, 0.0,29.4
2023/08/03 19:00:00, 0.0,29.7
2023/08/03 19:10:00, 0.0,29.4
2023/08/03 19:20:00, 0.0,29.2
2023/08/03 19:30:00, 0.0,28.9
2023/08/03 19:40:00, 0.0,28.6
2023/08/03 19:50:00, 0.0,28.4
2023/08/03 20:00:00, 0.0,28.4
2023/08/03 20:10:00, 0.0,28.7
2023/08/03 20:20:00, 0.0,28.4
2023/08/03 20:30:00, 0.0,28.6
2023/08/03 20:40:00, 0.0,28.4
2023/08/03 20:50:00, 0.0,27.9
2023/08/03 21:00:00, 0.0,27.9
2023/08/03 21:10:00, 0.0,28.0
2023/08/03 21:20:00, 0.0,28.0
2023/08/03 21:30:00, 0.0,27.8
2023/08/03 21:40:00, 0.0,27.8
2023/08/03 21:50:00, 0.0,27.6
2023/08/03 22:00:00, 0.1,27.6
2023/08/03 22:10:00, 0.1,27.4
2023/08/03 22:20:00, 0.1,27.2
2023/08/03 22:30:00, 0.1,27.1
2023/08/03 22:40:00, 0.1,26.9
2023/08/03 22:50:00, 0.1,26.9
2023/08/03 23:00:00, 0.1,26.8
2023/08/03 23:10:00, 0.2,26.9
2023/08/03 23:20:00, 0.2,26.8
2023/08/03 23:30:00, 0.2,26.7
2023/08/03 23:40:00, 0.1,26.7
2023/08/03 23:50:00, 0.1,26.7
